RYR156M EDDK-LEPA

Flight info

Callsign RYR156M
Flight time 1h 50m
Altitude 37000
Route NVO3F/13L NVO Y868 NAVAK Z283 SOPOK DCT ROUSY DCT GTQ DCT POGOL DCT LASAT DCT MOROK DCT GILIR DCT GEVEA DCT INCUS DCT BALSI DCT RETNO DCT TUPOX DCT MTG DCT DIVKO DCT VATIR DCT PIVUS DCT BODEQ DCT VERSO L129 LUNIK
Aircraft A320/M-SDE3FGHIRWY/LB1

Departure

Time 2026-04-21 18:34
Airport Cologne Bonn Airport (EDDK)

Arrival

Time 2026-04-21 20:25
Airport Palma de Mallorca Airport (LEPA)
Time Latitude Longitude Altitude Speed Heading
2026-04-21 18:16 50.88122 7.12039 231 ft 0 kts 216°
2026-04-21 18:27 50.88125 7.12042 230 ft 2 kts 216°
2026-04-21 18:27 50.88135 7.12053 230 ft 2 kts 216°
2026-04-21 18:27 50.88144 7.12064 230 ft 2 kts 216°
2026-04-21 18:28 50.88154 7.12075 231 ft 2 kts 217°
2026-04-21 18:28 50.88164 7.12088 234 ft 2 kts 218°
2026-04-21 18:28 50.88176 7.12100 233 ft 2 kts 178°
2026-04-21 18:28 50.88189 7.12095 233 ft 2 kts 123°
2026-04-21 18:29 50.88192 7.12089 230 ft 0 kts 106°
2026-04-21 18:30 50.88186 7.12132 233 ft 10 kts 108°
2026-04-21 18:30 50.88136 7.12237 231 ft 13 kts 130°
2026-04-21 18:31 50.88076 7.12366 230 ft 16 kts 125°
2026-04-21 18:31 50.88018 7.12523 230 ft 17 kts 120°
2026-04-21 18:31 50.87984 7.12648 231 ft 11 kts 90°
2026-04-21 18:31 50.87988 7.12696 232 ft 5 kts 81°
2026-04-21 18:32 50.87993 7.12741 236 ft 0 kts 75°
2026-04-21 18:33 50.88003 7.12801 235 ft 10 kts 78°
2026-04-21 18:33 50.88013 7.12907 237 ft 10 kts 83°
2026-04-21 18:33 50.87983 7.13000 239 ft 10 kts 137°
2026-04-21 18:33 50.87820 7.13237 245 ft 66 kts 137°
2026-04-21 18:34 50.87327 7.13956 252 ft 125 kts 137°
2026-04-21 18:34 50.86565 7.15046 292 ft 166 kts 133°
2026-04-21 18:34 50.85737 7.16090 932 ft 158 kts 140°
2026-04-21 18:34 50.84883 7.17179 1618 ft 157 kts 133°
2026-04-21 18:35 50.84348 7.17946 2031 ft 159 kts 131°
2026-04-21 18:35 50.83178 7.19670 2457 ft 187 kts 131°
2026-04-21 18:35 50.82179 7.21134 2751 ft 211 kts 132°
2026-04-21 18:35 50.81063 7.22741 3419 ft 220 kts 133°
2026-04-21 18:36 50.79831 7.24200 4291 ft 227 kts 154°
2026-04-21 18:36 50.78236 7.24419 5164 ft 238 kts 189°
2026-04-21 18:36 50.76722 7.23317 6050 ft 245 kts 217°
2026-04-21 18:36 50.75628 7.21238 6845 ft 254 kts 242°
2026-04-21 18:37 50.75115 7.18452 7245 ft 276 kts 261°
2026-04-21 18:37 50.74796 7.15397 7937 ft 286 kts 262°
2026-04-21 18:37 50.74475 7.12269 8758 ft 292 kts 262°
2026-04-21 18:37 50.74146 7.09080 9592 ft 297 kts 262°
2026-04-21 18:38 50.73807 7.05835 10376 ft 303 kts 262°
2026-04-21 18:38 50.73449 7.02452 10698 ft 325 kts 262°
2026-04-21 18:38 50.73062 6.98819 11035 ft 342 kts 262°
2026-04-21 18:38 50.72662 6.95080 11661 ft 349 kts 262°
2026-04-21 18:39 50.72253 6.91287 12343 ft 353 kts 261°
2026-04-21 18:39 50.71837 6.87443 13054 ft 357 kts 261°
2026-04-21 18:39 50.71415 6.83565 13761 ft 361 kts 261°
2026-04-21 18:39 50.70987 6.79642 14412 ft 365 kts 261°
2026-04-21 18:40 50.70553 6.75677 15043 ft 368 kts 261°
2026-04-21 18:40 50.70113 6.71678 15667 ft 371 kts 261°
2026-04-21 18:40 50.69820 6.69018 16077 ft 373 kts 261°
2026-04-21 18:40 50.69221 6.63591 16911 ft 377 kts 261°
2026-04-21 18:41 50.68769 6.59502 17548 ft 380 kts 261°
2026-04-21 18:41 50.68312 6.55397 18220 ft 382 kts 261°
2026-04-21 18:41 50.67849 6.51251 18807 ft 385 kts 261°
2026-04-21 18:41 50.67381 6.47069 19354 ft 389 kts 261°
2026-04-21 18:42 50.66908 6.42859 19913 ft 392 kts 261°
2026-04-21 18:42 50.66429 6.38611 20178 ft 394 kts 261°
2026-04-21 18:42 50.65947 6.34368 20244 ft 394 kts 261°
2026-04-21 18:42 50.65468 6.30169 20250 ft 394 kts 261°
2026-04-21 18:43 50.64976 6.25865 20251 ft 394 kts 261°
2026-04-21 18:43 50.64494 6.21652 20741 ft 397 kts 261°
2026-04-21 18:43 50.64004 6.17354 21337 ft 400 kts 261°
2026-04-21 18:43 50.63507 6.13033 21900 ft 403 kts 261°
2026-04-21 18:44 50.63003 6.08671 22442 ft 406 kts 261°
2026-04-21 18:44 50.62495 6.04278 22964 ft 409 kts 261°
2026-04-21 18:44 50.61983 5.99869 23544 ft 411 kts 261°
2026-04-21 18:44 50.61465 5.95434 24051 ft 413 kts 261°
2026-04-21 18:45 50.60942 5.90969 24507 ft 416 kts 261°
2026-04-21 18:45 50.60412 5.86484 24957 ft 418 kts 261°
2026-04-21 18:45 50.59565 5.82109 25388 ft 422 kts 246°
2026-04-21 18:45 50.58003 5.78187 25821 ft 425 kts 230°
2026-04-21 18:46 50.55786 5.75116 26234 ft 428 kts 211°
2026-04-21 18:46 50.53987 5.73699 26503 ft 429 kts 199°
2026-04-21 18:46 50.51080 5.72715 26890 ft 429 kts 181°
2026-04-21 18:46 50.48101 5.72996 27228 ft 432 kts 172°
2026-04-21 18:47 50.45314 5.73534 27527 ft 435 kts 172°
2026-04-21 18:47 50.42294 5.74127 27880 ft 438 kts 172°
2026-04-21 18:47 50.39257 5.74724 28241 ft 441 kts 172°
2026-04-21 18:47 50.36205 5.75317 28603 ft 444 kts 173°
2026-04-21 18:48 50.33122 5.75906 28951 ft 447 kts 173°
2026-04-21 18:48 50.30023 5.76494 29300 ft 450 kts 173°
2026-04-21 18:48 50.26900 5.77086 29645 ft 453 kts 173°
2026-04-21 18:48 50.23790 5.78041 29905 ft 459 kts 165°
2026-04-21 18:49 50.20703 5.79414 30216 ft 463 kts 165°
2026-04-21 18:49 50.17598 5.80801 30497 ft 466 kts 165°
2026-04-21 18:49 50.15537 5.81721 30680 ft 467 kts 165°
2026-04-21 18:49 50.11353 5.83586 31071 ft 471 kts 165°
2026-04-21 18:50 50.08177 5.84999 31365 ft 473 kts 165°
2026-04-21 18:50 50.05017 5.86403 31785 ft 472 kts 165°
2026-04-21 18:50 50.01854 5.87804 32115 ft 474 kts 166°
2026-04-21 18:50 49.98758 5.89170 32412 ft 476 kts 166°
2026-04-21 18:51 49.95490 5.90611 32789 ft 476 kts 166°
2026-04-21 18:51 49.92304 5.92013 33222 ft 476 kts 165°
2026-04-21 18:51 49.89123 5.93412 33679 ft 474 kts 165°
2026-04-21 18:51 49.85994 5.94791 34112 ft 473 kts 165°
2026-04-21 18:52 49.82827 5.96185 34461 ft 473 kts 165°
2026-04-21 18:52 49.79665 5.97572 34767 ft 473 kts 166°
2026-04-21 18:52 49.76494 5.98959 35039 ft 474 kts 166°
2026-04-21 18:52 49.73323 6.00344 35333 ft 474 kts 166°
2026-04-21 18:53 49.70148 6.01731 35636 ft 474 kts 166°
2026-04-21 18:53 49.66978 6.03115 35939 ft 473 kts 166°
2026-04-21 18:53 49.63812 6.04495 36240 ft 473 kts 166°
2026-04-21 18:53 49.60648 6.05870 36538 ft 472 kts 166°
2026-04-21 18:54 49.57486 6.07240 36805 ft 472 kts 166°
2026-04-21 18:54 49.54321 6.08608 37036 ft 473 kts 166°
2026-04-21 18:54 49.51147 6.09994 37173 ft 475 kts 164°
2026-04-21 18:55 49.46118 6.13591 37197 ft 487 kts 147°
2026-04-21 18:55 49.39825 6.21232 37198 ft 499 kts 141°
2026-04-21 18:56 49.34389 6.27957 37180 ft 503 kts 141°
2026-04-21 18:56 49.28901 6.34677 37194 ft 505 kts 142°
2026-04-21 18:57 49.23409 6.41406 37187 ft 505 kts 141°
2026-04-21 18:57 49.17963 6.48092 37181 ft 505 kts 141°
2026-04-21 18:58 49.12819 6.54393 37182 ft 506 kts 142°
2026-04-21 18:58 49.07528 6.60839 37169 ft 507 kts 142°
2026-04-21 18:59 49.01861 6.67231 37190 ft 506 kts 152°
2026-04-21 18:59 48.98677 6.69474 37191 ft 503 kts 163°
2026-04-21 18:59 48.95309 6.70847 37191 ft 500 kts 173°
2026-04-21 18:59 48.91864 6.71331 37192 ft 495 kts 184°
2026-04-21 19:00 48.88423 6.71212 37176 ft 495 kts 185°
2026-04-21 19:00 48.81534 6.70938 37176 ft 496 kts 185°
2026-04-21 19:01 48.74629 6.70676 37189 ft 497 kts 185°
2026-04-21 19:01 48.67720 6.70416 37189 ft 497 kts 185°
2026-04-21 19:02 48.60804 6.70142 37188 ft 497 kts 185°
2026-04-21 19:02 48.53896 6.69863 37187 ft 497 kts 185°
2026-04-21 19:03 48.46974 6.69591 37188 ft 497 kts 185°
2026-04-21 19:03 48.40053 6.69326 37174 ft 497 kts 185°
2026-04-21 19:04 48.33131 6.69072 37174 ft 497 kts 185°
2026-04-21 19:04 48.26218 6.68814 37171 ft 497 kts 185°
2026-04-21 19:05 48.19301 6.68546 37149 ft 497 kts 186°
2026-04-21 19:05 48.12385 6.68272 37159 ft 497 kts 186°
2026-04-21 19:06 48.05463 6.68011 37154 ft 497 kts 186°
2026-04-21 19:06 47.98544 6.67754 37136 ft 498 kts 186°
2026-04-21 19:07 47.91617 6.67489 37135 ft 498 kts 186°
2026-04-21 19:07 47.84687 6.67224 37127 ft 498 kts 186°
2026-04-21 19:08 47.77753 6.66970 37109 ft 498 kts 186°
2026-04-21 19:08 47.70829 6.66715 37112 ft 498 kts 187°
2026-04-21 19:09 47.64750 6.66484 37109 ft 498 kts 187°
2026-04-21 19:09 47.57808 6.66222 37083 ft 497 kts 187°
2026-04-21 19:10 47.50896 6.65963 37099 ft 497 kts 187°
2026-04-21 19:10 47.44012 6.65454 37100 ft 490 kts 195°
2026-04-21 19:10 47.40738 6.64263 37104 ft 481 kts 206°
2026-04-21 19:11 47.37708 6.62298 37089 ft 471 kts 216°
2026-04-21 19:11 47.32561 6.56629 37098 ft 459 kts 227°
2026-04-21 19:12 47.28525 6.51553 37099 ft 460 kts 227°
2026-04-21 19:12 47.22827 6.44419 37096 ft 460 kts 227°
2026-04-21 19:13 47.17940 6.38338 37076 ft 460 kts 227°
2026-04-21 19:13 47.13054 6.32268 37090 ft 460 kts 227°
2026-04-21 19:14 47.07993 6.26478 37092 ft 469 kts 216°
2026-04-21 19:14 47.05049 6.24478 37083 ft 479 kts 205°
2026-04-21 19:14 47.01778 6.23314 37082 ft 489 kts 193°
2026-04-21 19:15 46.94977 6.22390 37072 ft 491 kts 191°
2026-04-21 19:15 46.88169 6.21496 37074 ft 491 kts 191°
2026-04-21 19:16 46.81490 6.20599 37078 ft 492 kts 191°
2026-04-21 19:16 46.74729 6.19699 37071 ft 491 kts 191°
2026-04-21 19:17 46.64520 6.18348 37072 ft 491 kts 191°
2026-04-21 19:17 46.57725 6.17456 37072 ft 490 kts 191°
2026-04-21 19:18 46.50934 6.16563 37065 ft 490 kts 191°
2026-04-21 19:18 46.44183 6.15679 37068 ft 490 kts 191°
2026-04-21 19:19 46.37350 6.14796 37029 ft 489 kts 192°
2026-04-21 19:19 46.30576 6.13911 37046 ft 489 kts 192°
2026-04-21 19:20 46.23846 6.12989 37053 ft 488 kts 193°
2026-04-21 19:20 46.17156 6.11614 37040 ft 484 kts 196°
2026-04-21 19:21 46.10523 6.09963 37050 ft 483 kts 197°
2026-04-21 19:21 46.03889 6.08387 37027 ft 484 kts 195°
2026-04-21 19:22 45.97230 6.06934 37015 ft 483 kts 195°
2026-04-21 19:22 45.90583 6.05505 37024 ft 483 kts 195°
2026-04-21 19:23 45.83943 6.04060 37023 ft 482 kts 195°
2026-04-21 19:23 45.77315 6.02593 37011 ft 482 kts 195°
2026-04-21 19:24 45.70770 6.00796 37016 ft 477 kts 200°
2026-04-21 19:24 45.64343 5.98526 36995 ft 475 kts 201°
2026-04-21 19:25 45.57955 5.96173 36983 ft 474 kts 201°
2026-04-21 19:25 45.51562 5.93845 36999 ft 474 kts 201°
2026-04-21 19:26 45.45173 5.91572 37006 ft 474 kts 201°
2026-04-21 19:26 45.38780 5.89308 36991 ft 473 kts 201°
2026-04-21 19:27 45.32403 5.87042 37003 ft 472 kts 201°
2026-04-21 19:27 45.26033 5.84780 37012 ft 472 kts 201°
2026-04-21 19:28 45.19670 5.82523 37010 ft 471 kts 201°
2026-04-21 19:28 45.13312 5.80274 37014 ft 470 kts 201°
2026-04-21 19:29 45.06968 5.78042 37014 ft 470 kts 201°
2026-04-21 19:29 45.00619 5.75805 37000 ft 470 kts 201°
2026-04-21 19:30 44.94317 5.73595 37011 ft 470 kts 200°
2026-04-21 19:30 44.87979 5.71387 36972 ft 468 kts 200°
2026-04-21 19:31 44.81645 5.69181 36979 ft 469 kts 200°
2026-04-21 19:31 44.75305 5.66969 36996 ft 469 kts 200°
2026-04-21 19:32 44.68971 5.64762 36989 ft 469 kts 200°
2026-04-21 19:32 44.63702 5.62939 37002 ft 469 kts 200°
2026-04-21 19:33 44.57364 5.60753 36993 ft 469 kts 200°
2026-04-21 19:33 44.51035 5.58553 36983 ft 468 kts 200°
2026-04-21 19:34 44.44704 5.56367 36959 ft 469 kts 200°
2026-04-21 19:34 44.38372 5.54203 36963 ft 469 kts 200°
2026-04-21 19:35 44.28865 5.50962 36953 ft 469 kts 200°
2026-04-21 19:36 44.22534 5.48802 36951 ft 468 kts 200°
2026-04-21 19:36 44.16206 5.46627 36950 ft 468 kts 200°
2026-04-21 19:37 44.09878 5.44464 36952 ft 468 kts 200°
2026-04-21 19:37 44.03554 5.42317 36947 ft 468 kts 200°
2026-04-21 19:38 43.97258 5.40094 36941 ft 463 kts 205°
2026-04-21 19:38 43.91274 5.36903 36943 ft 460 kts 207°
2026-04-21 19:39 43.85313 5.33680 36930 ft 460 kts 207°
2026-04-21 19:39 43.79394 5.30486 36932 ft 459 kts 207°
2026-04-21 19:40 43.73411 5.27260 36937 ft 459 kts 207°
2026-04-21 19:40 43.67497 5.24081 36925 ft 458 kts 207°
2026-04-21 19:41 43.61556 5.20897 36939 ft 458 kts 207°
2026-04-21 19:41 43.55608 5.17722 36940 ft 458 kts 207°
2026-04-21 19:42 43.49665 5.14553 36932 ft 458 kts 207°
2026-04-21 19:42 43.43724 5.11389 36939 ft 457 kts 207°
2026-04-21 19:43 43.37915 5.07943 36941 ft 450 kts 217°
2026-04-21 19:43 43.32776 5.03158 36941 ft 446 kts 220°
2026-04-21 19:44 43.27663 4.98331 36932 ft 446 kts 220°
2026-04-21 19:44 43.22549 4.93528 36939 ft 445 kts 219°
2026-04-21 19:45 43.17437 4.88739 36950 ft 445 kts 219°
2026-04-21 19:45 43.12328 4.83957 36934 ft 445 kts 219°
2026-04-21 19:46 43.07218 4.79184 36943 ft 445 kts 219°
2026-04-21 19:46 43.01880 4.74838 36949 ft 448 kts 214°
2026-04-21 19:47 42.96421 4.70708 36951 ft 448 kts 214°
2026-04-21 19:47 42.90957 4.66587 36941 ft 449 kts 214°
2026-04-21 19:48 42.85497 4.62456 36955 ft 449 kts 214°
2026-04-21 19:48 42.80032 4.58328 36961 ft 449 kts 214°
2026-04-21 19:49 42.74564 4.54212 36948 ft 449 kts 213°
2026-04-21 19:49 42.69091 4.50106 36957 ft 449 kts 213°
2026-04-21 19:50 42.64542 4.46692 36959 ft 449 kts 213°
2026-04-21 19:50 42.58145 4.41903 36960 ft 449 kts 213°
2026-04-21 19:51 42.52704 4.37836 36943 ft 449 kts 213°
2026-04-21 19:51 42.47223 4.33759 36948 ft 450 kts 213°
2026-04-21 19:52 42.41733 4.29691 36957 ft 450 kts 213°
2026-04-21 19:52 42.36245 4.25623 36961 ft 450 kts 213°
2026-04-21 19:53 42.30762 4.21554 36953 ft 450 kts 213°
2026-04-21 19:53 42.25270 4.17491 36946 ft 450 kts 213°
2026-04-21 19:54 42.19780 4.13445 36958 ft 450 kts 213°
2026-04-21 19:54 42.14289 4.09403 36960 ft 449 kts 213°
2026-04-21 19:55 42.08805 4.05364 36953 ft 449 kts 213°
2026-04-21 19:55 42.03316 4.01339 36958 ft 449 kts 213°
2026-04-21 19:56 41.97824 3.97320 36959 ft 449 kts 213°
2026-04-21 19:56 41.92202 3.93605 36957 ft 455 kts 202°
2026-04-21 19:57 41.85966 3.91856 36954 ft 460 kts 194°
2026-04-21 19:57 41.79655 3.90416 36958 ft 460 kts 194°
2026-04-21 19:58 41.73347 3.88972 36969 ft 460 kts 194°
2026-04-21 19:58 41.67194 3.87565 36944 ft 439 kts 194°
2026-04-21 19:59 41.61236 3.86200 36947 ft 432 kts 194°
2026-04-21 19:59 41.55314 3.84835 36684 ft 432 kts 194°
2026-04-21 19:59 41.52351 3.84151 36421 ft 432 kts 194°
2026-04-21 20:00 41.49387 3.83467 36142 ft 432 kts 194°
2026-04-21 20:00 41.46428 3.82787 35881 ft 431 kts 194°
2026-04-21 20:00 41.43471 3.82109 35629 ft 430 kts 194°
2026-04-21 20:00 41.40526 3.81433 35375 ft 429 kts 194°
2026-04-21 20:01 41.37592 3.80762 35127 ft 427 kts 194°
2026-04-21 20:01 41.34669 3.80095 34879 ft 426 kts 193°
2026-04-21 20:01 41.31752 3.79430 34634 ft 424 kts 193°
2026-04-21 20:01 41.28848 3.78771 34388 ft 423 kts 193°
2026-04-21 20:02 41.25952 3.78113 34140 ft 421 kts 193°
2026-04-21 20:02 41.23071 3.77460 33890 ft 419 kts 193°
2026-04-21 20:02 41.20201 3.76811 33617 ft 418 kts 193°
2026-04-21 20:02 41.17342 3.76163 33344 ft 416 kts 194°
2026-04-21 20:03 41.14548 3.75273 33072 ft 410 kts 202°
2026-04-21 20:03 41.11892 3.73943 32805 ft 407 kts 205°
2026-04-21 20:03 41.09261 3.72579 32542 ft 406 kts 205°
2026-04-21 20:03 41.06630 3.71224 32263 ft 404 kts 205°
2026-04-21 20:04 41.04018 3.69881 32002 ft 402 kts 205°
2026-04-21 20:04 41.01416 3.68542 31744 ft 401 kts 205°
2026-04-21 20:04 40.98822 3.67206 31488 ft 399 kts 205°
2026-04-21 20:04 40.96237 3.65875 31234 ft 398 kts 205°
2026-04-21 20:05 40.93661 3.64554 30990 ft 396 kts 205°
2026-04-21 20:05 40.91098 3.63242 30742 ft 395 kts 205°
2026-04-21 20:05 40.88534 3.61928 30493 ft 394 kts 205°
2026-04-21 20:05 40.85992 3.60624 30258 ft 390 kts 205°
2026-04-21 20:06 40.83467 3.59330 29841 ft 388 kts 205°
2026-04-21 20:06 40.80965 3.58049 29439 ft 385 kts 205°
2026-04-21 20:06 40.78509 3.56795 29050 ft 382 kts 205°
2026-04-21 20:06 40.76037 3.55536 28666 ft 380 kts 204°
2026-04-21 20:07 40.73576 3.54288 28291 ft 377 kts 204°
2026-04-21 20:07 40.71136 3.53048 27917 ft 375 kts 205°
2026-04-21 20:07 40.69494 3.52211 27657 ft 374 kts 205°
2026-04-21 20:07 40.66302 3.50585 27154 ft 371 kts 205°
2026-04-21 20:08 40.63900 3.49359 26765 ft 369 kts 205°
2026-04-21 20:08 40.61516 3.48144 26371 ft 367 kts 205°
2026-04-21 20:08 40.59144 3.46936 25984 ft 365 kts 205°
2026-04-21 20:08 40.56782 3.45735 25578 ft 363 kts 204°
2026-04-21 20:09 40.54426 3.44543 25170 ft 362 kts 204°
2026-04-21 20:09 40.52088 3.43359 24764 ft 360 kts 204°
2026-04-21 20:09 40.49751 3.42178 24347 ft 359 kts 204°
2026-04-21 20:09 40.47383 3.41034 23643 ft 368 kts 202°
2026-04-21 20:10 40.44932 3.39947 22865 ft 376 kts 201°
2026-04-21 20:10 40.42429 3.38898 22249 ft 377 kts 200°
2026-04-21 20:10 40.39957 3.37885 21511 ft 369 kts 200°
2026-04-21 20:10 40.37527 3.36887 20685 ft 364 kts 201°
2026-04-21 20:11 40.35130 3.35890 19868 ft 359 kts 201°
2026-04-21 20:11 40.32762 3.34888 19071 ft 355 kts 201°
2026-04-21 20:11 40.30424 3.33889 18301 ft 352 kts 201°
2026-04-21 20:11 40.28110 3.32900 17433 ft 348 kts 201°
2026-04-21 20:12 40.25826 3.31926 16617 ft 343 kts 201°
2026-04-21 20:12 40.23571 3.30969 15829 ft 338 kts 200°
2026-04-21 20:12 40.22064 3.30332 15304 ft 335 kts 200°
2026-04-21 20:12 40.19139 3.29089 14618 ft 332 kts 201°
2026-04-21 20:13 40.16952 3.28156 14181 ft 330 kts 201°
2026-04-21 20:13 40.14783 3.27233 13804 ft 327 kts 200°
2026-04-21 20:13 40.12617 3.26313 13349 ft 325 kts 200°
2026-04-21 20:13 40.10477 3.25406 12949 ft 322 kts 200°
2026-04-21 20:14 40.08355 3.24511 12550 ft 319 kts 200°
2026-04-21 20:14 40.06249 3.23625 12175 ft 316 kts 200°
2026-04-21 20:14 40.04166 3.22747 11785 ft 314 kts 200°
2026-04-21 20:14 40.02096 3.21875 11408 ft 311 kts 200°
2026-04-21 20:15 40.00039 3.21007 11031 ft 310 kts 200°
2026-04-21 20:15 39.97995 3.20144 10648 ft 308 kts 199°
2026-04-21 20:15 39.95962 3.19288 10280 ft 307 kts 199°
2026-04-21 20:15 39.93932 3.18434 9899 ft 306 kts 199°
2026-04-21 20:16 39.91936 3.17594 9730 ft 297 kts 199°
2026-04-21 20:16 39.89998 3.16781 9232 ft 291 kts 199°
2026-04-21 20:16 39.88099 3.15985 8794 ft 281 kts 199°
2026-04-21 20:16 39.86263 3.15215 8443 ft 276 kts 199°
2026-04-21 20:17 39.84464 3.14458 8101 ft 276 kts 199°
2026-04-21 20:17 39.82617 3.13678 7753 ft 275 kts 199°
2026-04-21 20:17 39.80817 3.12919 7407 ft 275 kts 199°
2026-04-21 20:17 39.78983 3.12148 6995 ft 278 kts 199°
2026-04-21 20:18 39.77737 3.11626 6722 ft 280 kts 198°
2026-04-21 20:18 39.75273 3.10597 6173 ft 282 kts 198°
2026-04-21 20:18 39.73401 3.09815 5750 ft 283 kts 198°
2026-04-21 20:18 39.71569 3.08870 5327 ft 284 kts 211°
2026-04-21 20:19 39.70124 3.07153 5043 ft 280 kts 234°
2026-04-21 20:19 39.69110 3.05053 4927 ft 270 kts 238°
2026-04-21 20:19 39.68145 3.02977 4627 ft 268 kts 238°
2026-04-21 20:19 39.67186 3.00925 4287 ft 261 kts 237°
2026-04-21 20:20 39.66264 2.98958 3954 ft 249 kts 237°
2026-04-21 20:20 39.65383 2.97079 3641 ft 238 kts 237°
2026-04-21 20:20 39.64822 2.95884 3439 ft 231 kts 237°
2026-04-21 20:20 39.64005 2.94145 3152 ft 221 kts 237°
2026-04-21 20:21 39.63225 2.92484 2868 ft 211 kts 237°
2026-04-21 20:21 39.62472 2.90882 2624 ft 206 kts 237°
2026-04-21 20:21 39.61734 2.89313 2317 ft 202 kts 237°
2026-04-21 20:21 39.61007 2.87768 2061 ft 198 kts 237°
2026-04-21 20:22 39.60311 2.86287 1788 ft 184 kts 237°
2026-04-21 20:22 39.59106 2.83727 1357 ft 149 kts 237°
2026-04-21 20:22 39.58581 2.82607 1174 ft 143 kts 237°
2026-04-21 20:23 39.58065 2.81528 967 ft 140 kts 237°
2026-04-21 20:23 39.57550 2.80492 750 ft 138 kts 236°
2026-04-21 20:23 39.57055 2.79405 539 ft 137 kts 241°
2026-04-21 20:23 39.56567 2.78342 383 ft 137 kts 237°
2026-04-21 20:24 39.56067 2.77292 208 ft 137 kts 239°
2026-04-21 20:24 39.55571 2.76240 89 ft 136 kts 239°
2026-04-21 20:24 39.55091 2.75210 39 ft 123 kts 239°
2026-04-21 20:24 39.54766 2.74527 38 ft 61 kts 237°
2026-04-21 20:25 39.54637 2.74256 38 ft 20 kts 237°
2026-04-21 20:25 39.54566 2.74045 38 ft 27 kts 256°
2026-04-21 20:25 39.54552 2.73845 38 ft 15 kts 270°
2026-04-21 20:25 39.54552 2.73783 38 ft 0 kts 269°
2026-04-21 20:26 39.54551 2.73770 38 ft 3 kts 269°
2026-04-21 20:26 39.54552 2.73731 38 ft 6 kts 279°
2026-04-21 20:26 39.54608 2.73640 38 ft 15 kts 334°
2026-04-21 20:26 39.54706 2.73582 38 ft 15 kts 330°
2026-04-21 20:27 39.54785 2.73519 38 ft 13 kts 328°
2026-04-21 20:27 39.54843 2.73505 38 ft 7 kts 36°
2026-04-21 20:27 39.54864 2.73532 38 ft 0 kts 46°